Location: Ithaca
(42.4410°N, 76.4970°W)
Time: 15:49:58
(UTC-04:00)

ISS - Visible Passes

Search period start: 29 July 2016 00:00
Search period end: 08 August 2016 00:00
Orbit: 401 x 403 km, 51.6° (Epoch: 29 July)

Date Brightness Start Highest point End Pass type
(mag) Time Alt. Az. Time Alt. Az. Time Alt. Az.
29 Jul -0.3 00:35:41 10° NW 00:37:50 16° N 00:38:13 16° N visible
29 Jul -1.6 22:04:25 10° W 22:07:26 34° NNW 22:10:28 10° NE visible
29 Jul -0.3 23:42:22 10° NW 23:44:33 16° N 23:46:43 10° NE visible
30 Jul 0.0 01:19:14 10° NW 01:19:18 10° NW 01:19:18 10° NW visible
30 Jul -2.6 21:11:08 10° WSW 21:14:21 56° NNW 21:17:34 10° NE visible
30 Jul -0.5 22:48:54 10° WNW 22:51:18 19° N 22:53:41 10° NE visible
31 Jul -0.3 00:26:16 10° NW 00:27:53 17° N 00:27:53 17° N visible
31 Jul -0.8 21:55:23 10° WNW 21:58:03 23° NNW 22:00:45 10° NE visible
31 Jul -0.5 23:33:10 10° NW 23:35:20 16° N 23:36:31 14° NNE visible
01 Aug -1.4 21:01:54 10° W 21:04:52 31° NNW 21:07:50 10° NE visible
01 Aug -0.4 22:39:52 10° NW 22:42:01 16° N 22:44:11 10° NE visible
02 Aug -0.3 00:16:37 10° NW 00:17:43 16° NNW 00:17:43 16° NNW visible
02 Aug -0.5 21:46:23 10° NW 21:48:43 18° N 21:51:02 10° NE visible
02 Aug -0.8 23:23:38 10° NW 23:26:02 19° N 23:26:22 18° NNE visible
03 Aug -0.8 20:52:50 10° WNW 20:55:25 21° NNW 20:58:02 10° NE visible
03 Aug -0.6 22:30:31 10° NW 22:32:43 17° N 22:34:55 10° NE visible
04 Aug -0.3 00:06:48 10° NW 00:07:35 15° NW 00:07:35 15° NW visible
04 Aug -0.5 21:37:14 10° NW 21:39:22 16° N 21:41:31 10° NE visible
04 Aug -1.1 23:13:51 10° NW 23:16:14 24° N 23:16:14 24° N visible
05 Aug -0.9 22:20:51 10° NW 22:23:20 19° NNE 22:24:54 14° NE visible
05 Aug -0.2 23:56:57 10° NW 23:57:29 14° NW 23:57:29 14° NW visible
06 Aug -0.7 21:27:44 10° NW 21:29:58 17° N 21:32:13 10° NE visible
06 Aug -1.5 23:03:57 10° NW 23:06:09 31° NNW 23:06:09 31° NNW visible
07 Aug -1.6 22:10:58 10° NW 22:13:49 27° NNE 22:14:50 22° NE visible
07 Aug -0.1 23:47:12 10° WNW 23:47:25 11° WNW 23:47:25 11° WNW visible
